Home > Weather > Malda > Past weeks

Flag for India Weather for the Past 2 Weeks in Malda, West Bengal, India

Now
111 °F

Broken clouds.


Feels Like: 105 °F
Forecast: 79 / 102 °F
Wind: 6 mph from Southwest

Location: Lucknow / Amausi

Current Time: Apr 30, 2016 at 12:53:20 PM

Latest Report: Apr 30, 2016 at 12:00 PM


Visibility: 3 mi

Pressure: 29.65 "Hg

Humidity: 9%

Dew Point: 41 °F

Location of MaldaLocation

Historic Weather in Malda — Graph

°F

Malda Temperature Yesterday

Maximum temperature yesterday: 111 °F (at 1:30 PM)
Minimum temperature yesterday: 75 °F (at 5:30 AM)
Average temperature yesterday: 95 °F

High & Low Weather Summary for the Past Weeks

 TemperatureHumidityPressure
High111 °F (Apr 15, 3:00 PM)79% (Apr 18, 6:30 AM)29.77 "Hg (Apr 18, 6:30 AM)
Low72 °F (Apr 25, 6:00 AM)7% (Apr 29, 3:30 PM)29.45 "Hg (Apr 23, 4:00 AM)
Average96 °F23%29.63 "Hg
* Reported Apr 15 11:00 AM — Apr 30 11:00 AM, Malda, Weather by CustomWeather, © 2016

Note: Actual official high and low records may vary slightly from our data, if they occured in-between our weather recording intervals... More about our weather records

Advertising

Malda Weather History for the Previous 24 Hours

Scroll right to see more
 ConditionsComfort  
Time TempWeatherWind HumidityBarometerVisibility
11:00 AM
Sat, Apr 30
109 °FBroken clouds.5 mph12%29.68 "Hg3 mi
10:30 AM106 °FBroken clouds.2 mph14%29.68 "Hg3 mi
10:00 AM102 °FBroken clouds.2 mph18%29.68 "Hg3 mi
9:00 AM97 °FBroken clouds.No wind23%29.68 "Hg3 mi
8:00 AM90 °FScattered clouds.No wind24%29.68 "Hg2 mi
7:30 AM84 °FScattered clouds.3 mph29%29.68 "Hg2 mi
6:00 AM77 °FScattered clouds.No wind42%29.65 "Hg2 mi
5:00 AM79 °FPassing clouds.No wind37%29.65 "Hg2 mi
4:00 AM81 °FPassing clouds.1 mph37%29.65 "Hg2 mi
3:00 AM84 °FPassing clouds.2 mph29%29.62 "Hg2 mi
2:00 AM86 °FPassing clouds.2 mph29%29.65 "Hg2 mi
1:00 AM86 °FPassing clouds.No wind27%29.65 "Hg2 mi
12:00 AM86 °FPassing clouds.No wind27%29.65 "Hg2 mi
11:00 PM
Fri, Apr 29
86 °FPassing clouds.2 mph27%29.65 "Hg2 mi
10:00 PM90 °FPassing clouds.No wind24%29.68 "Hg2 mi
9:00 PM93 °FHaze.No wind19%29.68 "Hg2 mi
8:30 PM95 °FHaze.2 mph18%29.65 "Hg2 mi
8:00 PM97 °FHaze.3 mph16%29.65 "Hg2 mi
7:30 PM99 °FHaze.2 mph15%29.65 "Hg2 mi
7:00 PM102 °FHaze.3 mph13%29.65 "Hg3 mi
6:30 PM104 °FHaze.3 mph12%29.65 "Hg3 mi
6:00 PM108 °FHaze.5 mph10%29.62 "Hg3 mi
5:30 PM108 °FHaze.10 mph10%29.62 "Hg3 mi
5:00 PM109 °FHaze.9 mph9%29.62 "Hg3 mi
4:30 PM109 °FHaze.14 mph8%29.62 "Hg3 mi
3:30 PM111 °FHaze.12 mph7%29.62 "Hg3 mi
3:00 PM111 °FHaze.9 mph9%29.62 "Hg3 mi
2:00 PM111 °FHaze.10 mph11%29.65 "Hg3 mi
1:30 PM111 °FHaze.3 mph11%29.65 "Hg3 mi
1:00 PM109 °FHaze.6 mph11%29.68 "Hg3 mi
12:30 PM109 °FScattered clouds.9 mph10%29.68 "Hg3 mi
Weather by CustomWeather, © 2016

See weather overviewHow to use our weather pages